Regional Weather Roundup
Issued by NWS

Home | Current Version | Previous Version | Graphics & Text | Print | Product List | Glossary On
Versions: 1 2 3 4 5 6 7 8 9 10 11 12 13 14 15 16 17 18 19 20 21 22 23 24 25 26 27 28 29 30 31 32 33 34 35 36 37 38 39 40 41 42 43 44 45 46 47 48 49 50
000
ASUS43 KMKX 220100
RWRWI

WISCONSIN REGIONAL WEATHER ROUNDUP
NATIONAL WEATHER SERVICE MILWAUKEE/SULLIVAN WI
800 PM CDT SUN MAY 21 2017

NOTE: "FAIR" INDICATES FEW OR NO CLOUDS BELOW 12,000 FEET WITH NO
SIGNIFICANT WEATHER AND/OR OBSTRUCTIONS TO VISIBILITY.

WIZ001-002-006>008-014>016-023>028-220200-
NORTHWEST WISCONSIN

CITY           SKY/WX    TMP DP  RH WIND       PRES   REMARKS
SUPERIOR ARPT  NOT AVBL
ASHLAND        CLOUDY    49  43  80 W9        29.77R
HAYWARD        CLOUDY    50  46  86 W5        29.79R
SIREN          DRIZZLE   47  46  93 W9        29.83R
CUMBERLAND     CLOUDY    45  43  93 W16       29.82R FOG
RICE LAKE      CLOUDY    48  46  92 W13G18    29.84R
CHETEK         LGT RAIN  47  47  97 W5        29.83R
LADYSMITH      LGT RAIN  49  48  96 SW14G20   29.81R
EAU CLAIRE     CLOUDY    46  45  93 W14       29.85R
MENOMONIE      CLOUDY    47  47 100 SW10      29.86R
NEW RICHMOND   DRIZZLE   45  44  96 W10       29.87R
OSCEOLA        CLOUDY    46  46 100 W12       29.89R FOG
$$

WIZ003>005-009-010-017-018-220200-
NORTH CENTRAL WISCONSIN

CITY           SKY/WX    TMP DP  RH WIND       PRES   REMARKS
MANITOWISH WTR CLOUDY    48  48 100 SW6       29.77S
ARBOR VITAE    CLOUDY    49  47  93 SW6       29.77S
WOODRUFF       CLOUDY    49  47  93 SW6       29.77S
RHINELANDER    CLOUDY    49  46  90 SW14      29.79S
EAGLE RIVER    CLOUDY    48  46  95 SW7       29.77S
LAND O LAKES   CLOUDY    49  46  92 SW6       29.78S
PHILLIPS       CLOUDY    47  47 100 S7        29.78R FOG
TOMAHAWK       CLOUDY    46  44  91 SW5       29.80S FOG
MEDFORD        DRIZZLE   46  44  95 SW10      29.81S
MERRILL        CLOUDY    47  46  97 SW12      29.82S FOG
$$

WIZ029-030-035-036-043>047-220200-
CENTRAL WISCONSIN

CITY           SKY/WX    TMP DP  RH WIND       PRES   REMARKS
WAUSAU         LGT RAIN  46  45  96 SW9       29.82S FOG
MOSINEE        LGT RAIN  46  45  93 SW13      29.85R
MARSHFIELD     LGT RAIN  46  42  86 SW15      29.84S
STEVENS POINT  CLOUDY    47  41  78 SW10      29.86S
WAUPACA        CLOUDY    53  44  71 SW10      29.87R
WAUTOMA        CLOUDY    49  43  80 SW9       29.88S
WISC RAPIDS    CLOUDY    49  41  74 W14G21    29.87S
CAMP DOUGLAS   NOT AVBL
$$

WIZ011>013-019>022-031-037>040-048>050-220200-
NORTHEAST WISCONSIN

CITY           SKY/WX    TMP DP  RH WIND       PRES   REMARKS
ANTIGO         CLOUDY    46  44  92 SW12G22   29.82S
SHAWANO        CLOUDY    54  45  70 SW7       29.84S
OCONTO         CLOUDY    54  44  68 SW13      29.83R
STURGEON BAY   CLOUDY    54  45  71 SW14G22   29.83R
GREEN BAY      CLOUDY    52  46  80 SW12G20   29.85S
MANITOWOC      CLOUDY    52  45  76 SW13      29.88R
APPLETON       CLOUDY    52  39  62 SW13G23   29.85S
CLINTONVILLE   CLOUDY    52  43  71 SW13      29.85R
OSHKOSH        CLOUDY    50  43  77 SW10      29.88S
$$

WIZ032>034-041-042-053>061-220200-
SOUTHWEST WISCONSIN

CITY           SKY/WX    TMP DP  RH WIND       PRES   REMARKS
LA CROSSE      CLOUDY    50  42  74 W9        29.91S
SPARTA         CLOUDY    48  43  84 W9        29.91R
VIROQUA        CLOUDY    46  42  86 MISG      29.92S
BOSCOBEL       CLOUDY    51  41  68 W7G18     29.96R
PRAIRIE DU CHI CLOUDY    50  40  69 W8        29.96S
PLATTEVILLE    CLOUDY    49  44  81 SW12      29.97S
$$

WIZ056-057-062-063-064-067-068-220200-
SOUTH CENTRAL WISCONSIN

CITY           SKY/WX    TMP DP  RH WIND       PRES   REMARKS
REEDSBURG      CLOUDY    47  44  88 SW13      29.92R
BARABOO/DELLS  CLOUDY    47  42  81 SW9       29.91S
LONE ROCK      CLOUDY    50  41  71 W13G22    29.94S
MINERAL POINT  CLOUDY    50  43  76 W13       29.95S
MADISON        CLOUDY    49  41  74 W8        29.93S
MIDDLETON      CLOUDY    50  42  73 W9        29.94S
WATERTOWN      CLOUDY    48  44  84 SW16      29.93S
MONROE         CLOUDY    48  41  76 SW15G22   29.96S
JANESVILLE     CLOUDY   N/A N/A N/A SW10G17   29.96S
$$

WIZ051-052-058>065-066-070>072-220200-
SOUTHEAST WISCONSIN

CITY           SKY/WX    TMP DP  RH WIND       PRES   REMARKS
MILWAUKEE      CLOUDY    53  41  63 W13G22    29.94S
WAUKESHA       CLOUDY    46  39  76 SW12G23   29.95S
MILWAUKEE/TIMM CLOUDY    50  39  66 SW12G22   29.94S
RACINE         CLOUDY    51  41  68 SW5       29.96S
KENOSHA        CLOUDY    51  41  68 W17G25    29.96S
FOND DU LAC    CLOUDY    50  42  74 SW9       29.90R
SHEBOYGAN      CLOUDY    51  44  77 W16       29.89F
WEST BEND      CLOUDY    50  43  76 W12G21    29.91S
JUNEAU         CLOUDY    47  43  85 SW13      29.93S
$$

LSZ147-162-220200-
LAKE SUPERIOR

STATION/POSITION TIME  TEMP    WIND        PRES    WAVE
                       AIR SEA DIR/SP/G            HT/PER
                 (UTC) (F)     (DEG/KT/KT) (MB)    (FT/S)
W MID LAKE BUOY  2350   38 37  290/  6/  8 1007.6S   2/ 5
DEVILS ISLAND    0000   40     240/  7/  9 1008.2F
PORT WING        2240   45     180/  3/  4 1008.8F
SAXON HARBOR     0030   44      CALM  /  1 1008.1R
$$

LMZ867-665-643>646-220200-
LAKE MICHIGAN

STATION/POSITION TIME  TEMP    WIND        PRES    WAVE
                       AIR SEA DIR/SP/G            HT/PER
                 (UTC) (F)     (DEG/KT/KT) (MB)    (FT/S)
CHAMBERS ISLAND  0040   53     200/  6/ 13 1009.1R
N MID LAKE BUOY  2350   43 39  200/ 12/ 14 1010.8R   2/ 4
NORTHPORT PIER   0040   55     200/  5/ 12 1009.5S
KEWAUNEE LAKESHO 0030   54     230/ 12/ 17 1010.6R
SHEBOYGAN LAKESH 0000   53     250/ 16/ 22 1012.3R
PORT WASHINGTON  0040   53     250/  8/ 18 1013.9S
MILWAUKEE LAKESH 0030   52     240/ 17/ 21   N/A
S MID LAKE BUOY  2350   48 45  270/ 12/ 14 1014.3R   2/ 3
KENOSHA   LAKESH 0000   53     260/ 14/ 22 1014.6
$$

TC  - TEMPERATURE IN CELSIUS
VSB - VISIBILITY IN STATUTE MILES
WCI - WIND CHILL INDEX
HX  - HEAT INDEX





USA.gov is the U.S. government's official web portal to all federal, state and local government web resources and services.